owner,sensor,date,latitude,longitude,vertical_datum,sea_water_temperature,qcFlag
Shell,ioos:station:wmo:42873:2,2022-01-04T15:37:00Z,28.1860,-89.1790,0.1,13.7,11111222
Shell,ioos:station:wmo:42873:2,2022-01-04T15:47:00Z,28.1860,-89.1790,0.1,13.8,11111222
Shell,ioos:station:wmo:42873:2,2022-01-04T15:57:00Z,28.1860,-89.1790,0.1,14.0,11111222
Shell,ioos:station:wmo:42873:2,2022-01-04T16:07:00Z,28.1860,-89.1790,0.0,14.1,11111222
Shell,ioos:station:wmo:42873:2,2022-01-04T16:17:00Z,28.1860,-89.1790,0.0,14.3,11111222
Shell,ioos:station:wmo:42873:2,2022-01-04T16:27:00Z,28.1860,-89.1790,0.0,14.3,11111222
Shell,ioos:station:wmo:42873:2,2022-01-04T16:37:00Z,28.1860,-89.1790,0.0,14.4,11111222
Shell,ioos:station:wmo:42873:2,2022-01-04T16:47:00Z,28.1860,-89.1790,0.0,14.6,11111222
Shell,ioos:station:wmo:42873:2,2022-01-04T16:57:00Z,28.1860,-89.1790,0.0,14.7,11111222
Shell,ioos:station:wmo:42873:2,2022-01-04T17:07:00Z,28.1860,-89.1790,0.1,14.9,11111222
Shell,ioos:station:wmo:42873:2,2022-01-04T17:17:00Z,28.1860,-89.1790,0.0,15.0,11111222
Shell,ioos:station:wmo:42873:2,2022-01-04T17:27:00Z,28.1860,-89.1790,0.0,15.1,11111222
Shell,ioos:station:wmo:42873:2,2022-01-04T17:38:00Z,28.1860,-89.1790,0.0,15.3,11111222
Shell,ioos:station:wmo:42873:2,2022-01-04T17:48:00Z,28.1860,-89.1790,0.0,15.6,11111222
Shell,ioos:station:wmo:42873:2,2022-01-04T17:58:00Z,28.1860,-89.1790,0.0,15.8,11111222
Shell,ioos:station:wmo:42873:2,2022-01-04T18:08:00Z,28.1860,-89.1790,0.0,16.0,11111222
Shell,ioos:station:wmo:42873:2,2022-01-04T18:18:00Z,28.1860,-89.1790,0.0,16.2,11111222
Shell,ioos:station:wmo:42873:2,2022-01-04T18:28:00Z,28.1860,-89.1790,0.0,16.3,11111222
Shell,ioos:station:wmo:42873:2,2022-01-04T18:38:00Z,28.1860,-89.1790,0.0,16.4,11111222
Shell,ioos:station:wmo:42873:2,2022-01-04T18:48:00Z,28.1860,-89.1790,0.0,16.4,11111222
Shell,ioos:station:wmo:42873:2,2022-01-04T18:58:00Z,28.1860,-89.1790,0.0,16.6,11111222
Shell,ioos:station:wmo:42873:2,2022-01-04T19:08:00Z,28.1860,-89.1790,0.0,16.9,11111222
Shell,ioos:station:wmo:42873:2,2022-01-04T19:18:00Z,28.1860,-89.1790,0.0,17.2,11111222
Shell,ioos:station:wmo:42873:2,2022-01-04T19:28:00Z,28.1860,-89.1790,0.0,17.3,11111222
Shell,ioos:station:wmo:42873:2,2022-01-04T19:38:00Z,28.1860,-89.1790,0.0,17.3,11111222
Shell,ioos:station:wmo:42873:2,2022-01-04T19:48:00Z,28.1860,-89.1790,0.0,17.4,11111222
Shell,ioos:station:wmo:42873:2,2022-01-04T19:58:00Z,28.1860,-89.1790,0.0,17.4,11111222
Shell,ioos:station:wmo:42873:2,2022-01-04T20:08:00Z,28.1860,-89.1790,0.0,17.4,11111222
Shell,ioos:station:wmo:42873:2,2022-01-04T20:18:00Z,28.1860,-89.1790,0.0,17.4,11111222
Shell,ioos:station:wmo:42873:2,2022-01-04T20:28:00Z,28.1860,-89.1790,0.0,17.8,11111222
Shell,ioos:station:wmo:42873:2,2022-01-04T20:38:00Z,28.1860,-89.1790,0.0,18.3,11111222
Shell,ioos:station:wmo:42873:2,2022-01-04T20:48:00Z,28.1860,-89.1790,0.0,18.8,11111222
Shell,ioos:station:wmo:42873:2,2022-01-04T20:58:00Z,28.1860,-89.1790,0.0,19.4,11111222
Shell,ioos:station:wmo:42873:2,2022-01-04T21:08:00Z,28.1860,-89.1790,0.0,19.8,11111222
Shell,ioos:station:wmo:42873:2,2022-01-04T21:18:00Z,28.1860,-89.1790,0.0,20.1,11111222
Shell,ioos:station:wmo:42873:2,2022-01-04T21:28:00Z,69.0262,-115.6300,0.0,20.5,11111222
Shell,ioos:station:wmo:42873:2,2022-01-04T21:38:00Z,28.1860,-89.1790,0.0,20.9,11111222
Shell,ioos:station:wmo:42873:2,2022-01-04T21:48:00Z,28.1860,-89.1790,0.0,21.1,11111222
Shell,ioos:station:wmo:42873:2,2022-01-04T21:58:00Z,28.1860,-89.1790,0.0,21.2,11111222
Shell,ioos:station:wmo:42873:2,2022-01-04T22:08:00Z,28.1860,-89.1790,0.0,21.4,11111222
Shell,ioos:station:wmo:42873:2,2022-01-04T22:18:00Z,28.1860,-89.1790,0.0,21.6,11111222
Shell,ioos:station:wmo:42873:2,2022-01-04T22:28:00Z,28.1860,-89.1790,0.0,21.7,11111222
Shell,ioos:station:wmo:42873:2,2022-01-04T22:38:00Z,28.1860,-89.1790,0.0,21.8,11111222
Shell,ioos:station:wmo:42873:2,2022-01-04T22:48:00Z,28.1860,-89.1790,0.0,21.8,11111222
Shell,ioos:station:wmo:42873:2,2022-01-04T22:58:00Z,28.1860,-89.1790,0.0,21.6,11111222
Shell,ioos:station:wmo:42873:2,2022-01-04T23:08:00Z,28.1860,-89.1790,0.0,21.4,11111222
Shell,ioos:station:wmo:42873:2,2022-01-04T23:18:00Z,28.1860,-89.1790,0.0,21.1,11111222
Shell,ioos:station:wmo:42873:2,2022-01-04T23:28:00Z,28.1860,-89.1790,0.0,20.7,11111222
Shell,ioos:station:wmo:42873:2,2022-01-04T23:38:00Z,28.1860,-89.1790,0.0,20.3,11111222
Shell,ioos:station:wmo:42873:2,2022-01-04T23:48:00Z,28.1860,-89.1790,0.0,19.9,11111222
Shell,ioos:station:wmo:42873:2,2022-01-04T23:58:00Z,28.1860,-89.1790,0.0,19.6,11111222
Shell,ioos:station:wmo:42873:2,2022-01-05T00:08:00Z,28.1860,-89.1790,0.0,19.2,11111222
Shell,ioos:station:wmo:42873:2,2022-01-05T00:18:00Z,28.1860,-89.1790,0.0,18.9,11111222
Shell,ioos:station:wmo:42873:2,2022-01-05T00:28:00Z,28.1860,-89.1790,0.0,18.6,11111222
Shell,ioos:station:wmo:42873:2,2022-01-05T00:38:00Z,28.1860,-89.1790,0.0,18.4,11111222
Shell,ioos:station:wmo:42873:2,2022-01-05T00:48:00Z,28.1860,-89.1790,0.0,18.2,11111222
Shell,ioos:station:wmo:42873:2,2022-01-05T00:58:00Z,28.1860,-89.1790,0.0,18.0,11111222
Shell,ioos:station:wmo:42873:2,2022-01-05T01:09:00Z,28.1860,-89.1790,0.0,17.8,11111222
Shell,ioos:station:wmo:42873:2,2022-01-05T01:19:00Z,28.1860,-89.1790,0.0,17.6,11111222
Shell,ioos:station:wmo:42873:2,2022-01-05T01:29:00Z,28.1860,-89.1790,0.0,17.4,11111222
Shell,ioos:station:wmo:42873:2,2022-01-05T01:39:00Z,28.1860,-89.1790,0.0,17.2,11111222
Shell,ioos:station:wmo:42873:2,2022-01-05T01:49:00Z,28.1860,-89.1790,0.0,17.1,11111222
Shell,ioos:station:wmo:42873:2,2022-01-05T01:59:00Z,28.1860,-89.1790,0.0,16.9,11111222
Shell,ioos:station:wmo:42873:2,2022-01-05T02:09:00Z,28.1860,-89.1790,0.0,16.8,11111222
Shell,ioos:station:wmo:42873:2,2022-01-05T02:19:00Z,28.1860,-89.1790,0.0,16.7,11111222
Shell,ioos:station:wmo:42873:2,2022-01-05T02:29:00Z,28.1860,-89.1790,0.0,16.6,11111222
Shell,ioos:station:wmo:42873:2,2022-01-05T02:39:00Z,28.1860,-89.1790,0.0,16.5,11111222
Shell,ioos:station:wmo:42873:2,2022-01-05T02:49:00Z,28.1860,-89.1790,0.0,16.4,11111222
Shell,ioos:station:wmo:42873:2,2022-01-05T02:59:00Z,28.1860,-89.1790,0.0,16.3,11111222
Shell,ioos:station:wmo:42873:2,2022-01-05T03:09:00Z,28.1860,-89.1790,0.0,16.3,11111222
Shell,ioos:station:wmo:42873:2,2022-01-05T03:19:00Z,28.1860,-89.1790,0.0,16.2,11111222
Shell,ioos:station:wmo:42873:2,2022-01-05T03:29:00Z,28.1860,-89.1790,0.0,16.2,11111222
Shell,ioos:station:wmo:42873:2,2022-01-05T03:39:00Z,28.1860,-89.1790,0.0,16.2,11111222
Shell,ioos:station:wmo:42873:2,2022-01-05T03:49:00Z,28.1860,-89.1790,0.0,16.2,11111222
Shell,ioos:station:wmo:42873:2,2022-01-05T03:59:00Z,28.1860,-89.1790,0.0,16.2,11111222
Shell,ioos:station:wmo:42873:2,2022-01-05T04:09:00Z,28.1860,-89.1790,0.0,16.2,11111222
Shell,ioos:station:wmo:42873:2,2022-01-05T04:19:00Z,28.1860,-89.1790,0.0,16.3,11111222
Shell,ioos:station:wmo:42873:2,2022-01-05T04:29:00Z,28.1860,-89.1790,0.0,16.3,11111222
Shell,ioos:station:wmo:42873:2,2022-01-05T04:39:00Z,28.1860,-89.1790,0.0,16.4,11111222
Shell,ioos:station:wmo:42873:2,2022-01-05T04:49:00Z,28.1860,-89.1790,0.0,16.4,11111222
Shell,ioos:station:wmo:42873:2,2022-01-05T04:59:00Z,28.1860,-89.1790,0.0,16.5,11111222
Shell,ioos:station:wmo:42873:2,2022-01-05T05:09:00Z,28.1860,-89.1790,0.0,16.6,11111222
Shell,ioos:station:wmo:42873:2,2022-01-05T05:19:00Z,28.1860,-89.1790,0.0,16.6,11111222
Shell,ioos:station:wmo:42873:2,2022-01-05T05:29:00Z,28.1860,-89.1790,0.0,16.8,11111222
Shell,ioos:station:wmo:42873:2,2022-01-05T05:39:00Z,28.1860,-89.1790,0.0,16.9,11111222
Shell,ioos:station:wmo:42873:2,2022-01-05T05:49:00Z,28.1860,-89.1790,0.0,17.0,11111222
Shell,ioos:station:wmo:42873:2,2022-01-05T05:59:00Z,28.1860,-89.1790,0.0,17.0,11111222
Shell,ioos:station:wmo:42873:2,2022-01-05T06:09:00Z,28.1860,-89.1790,0.0,17.1,11111222
Shell,ioos:station:wmo:42873:2,2022-01-05T06:19:00Z,28.1860,-89.1790,0.0,17.1,11111222
Shell,ioos:station:wmo:42873:2,2022-01-05T06:29:00Z,28.1860,-89.1790,0.0,17.2,11111222
Shell,ioos:station:wmo:42873:2,2022-01-05T06:39:00Z,28.1860,-89.1790,0.0,17.2,11111222
Shell,ioos:station:wmo:42873:2,2022-01-05T06:49:00Z,28.1860,-89.1790,0.0,17.2,11111222
Shell,ioos:station:wmo:42873:2,2022-01-05T06:59:00Z,28.1860,-89.1790,0.0,17.3,11111222
Shell,ioos:station:wmo:42873:2,2022-01-05T07:09:00Z,28.1860,-89.1790,0.0,17.3,11111222
Shell,ioos:station:wmo:42873:2,2022-01-05T07:19:00Z,28.1860,-89.1790,0.0,17.3,11111222
Shell,ioos:station:wmo:42873:2,2022-01-05T07:29:00Z,28.1860,-89.1790,0.0,17.4,11111222
Shell,ioos:station:wmo:42873:2,2022-01-05T07:39:00Z,28.1860,-89.1790,0.0,17.4,11111222
Shell,ioos:station:wmo:42873:2,2022-01-05T07:49:00Z,28.1860,-89.1790,0.0,17.4,11111222
Shell,ioos:station:wmo:42873:2,2022-01-05T07:59:00Z,28.1860,-89.1790,0.0,17.5,11111222
Shell,ioos:station:wmo:42873:2,2022-01-05T08:09:00Z,28.1860,-89.1790,0.0,17.6,11111222
Shell,ioos:station:wmo:42873:2,2022-01-05T08:19:00Z,28.1860,-89.1790,0.0,17.8,11111222
Shell,ioos:station:wmo:42873:2,2022-01-05T08:29:00Z,28.1860,-89.1790,0.0,18.0,11111222
Shell,ioos:station:wmo:42873:2,2022-01-05T08:40:00Z,28.1860,-89.1790,0.0,18.3,11111222
Shell,ioos:station:wmo:42873:2,2022-01-05T08:50:00Z,28.1860,-89.1790,0.0,18.4,11111222
Shell,ioos:station:wmo:42873:2,2022-01-05T09:00:00Z,28.1860,-89.1790,0.0,18.6,11111222
Shell,ioos:station:wmo:42873:2,2022-01-05T09:10:00Z,28.1860,-89.1790,0.0,18.7,11111222
Shell,ioos:station:wmo:42873:2,2022-01-05T09:20:00Z,28.1860,-89.1790,0.0,18.8,11111222
Shell,ioos:station:wmo:42873:2,2022-01-05T09:30:00Z,28.1860,-89.1790,0.0,18.9,11111222
Shell,ioos:station:wmo:42873:2,2022-01-05T09:40:00Z,28.1860,-89.1790,0.0,19.0,11111222
Shell,ioos:station:wmo:42873:2,2022-01-05T09:50:00Z,28.1860,-89.1790,0.0,19.1,11111222
Shell,ioos:station:wmo:42873:2,2022-01-05T10:00:00Z,28.1860,-89.1790,0.0,19.3,11111222
Shell,ioos:station:wmo:42873:2,2022-01-05T10:10:00Z,28.1860,-89.1790,0.0,19.5,11111222
Shell,ioos:station:wmo:42873:2,2022-01-05T10:20:00Z,28.1860,-89.1790,0.0,19.6,11111222
Shell,ioos:station:wmo:42873:2,2022-01-05T10:30:00Z,28.1860,-89.1790,0.0,19.7,11111222
Shell,ioos:station:wmo:42873:2,2022-01-05T10:40:00Z,28.1860,-89.1790,0.0,19.8,11111222
Shell,ioos:station:wmo:42873:2,2022-01-05T10:50:00Z,28.1860,-89.1790,0.0,19.9,11111222
Shell,ioos:station:wmo:42873:2,2022-01-05T11:00:00Z,28.1860,-89.1790,0.0,20.0,11111222
Shell,ioos:station:wmo:42873:2,2022-01-05T11:10:00Z,28.1860,-89.1790,0.0,20.1,11111222
Shell,ioos:station:wmo:42873:2,2022-01-05T11:20:00Z,28.1860,-89.1790,0.0,20.2,11111222
Shell,ioos:station:wmo:42873:2,2022-01-05T11:30:00Z,28.1860,-89.1790,0.0,20.3,11111222
Shell,ioos:station:wmo:42873:2,2022-01-05T11:40:00Z,28.1860,-89.1790,0.0,20.3,11111222
Shell,ioos:station:wmo:42873:2,2022-01-05T11:50:00Z,28.1860,-89.1790,0.0,20.3,11111222
Shell,ioos:station:wmo:42873:2,2022-01-05T12:00:00Z,28.1860,-89.1790,0.0,20.3,11111222
Shell,ioos:station:wmo:42873:2,2022-01-05T12:10:00Z,28.1860,-89.1790,0.0,20.3,11111222
Shell,ioos:station:wmo:42873:2,2022-01-05T12:20:00Z,28.1860,-89.1790,0.0,20.3,11111222
Shell,ioos:station:wmo:42873:2,2022-01-05T12:30:00Z,28.1860,-89.1790,0.0,20.3,11111222
Shell,ioos:station:wmo:42873:2,2022-01-05T12:40:00Z,28.1860,-89.1790,0.0,20.4,11111222
Shell,ioos:station:wmo:42873:2,2022-01-05T12:50:00Z,28.1860,-89.1790,0.0,20.4,11111222
Shell,ioos:station:wmo:42873:2,2022-01-05T13:00:00Z,28.1860,-89.1790,0.0,20.4,11111222
Shell,ioos:station:wmo:42873:2,2022-01-05T13:10:00Z,28.1860,-89.1790,0.0,20.5,11111222
Shell,ioos:station:wmo:42873:2,2022-01-05T13:20:00Z,28.1860,-89.1790,0.0,20.5,11111222
Shell,ioos:station:wmo:42873:2,2022-01-05T13:30:00Z,28.1860,-89.1790,0.0,20.5,11111222
Shell,ioos:station:wmo:42873:2,2022-01-05T13:40:00Z,28.1860,-89.1790,0.0,20.4,11111222
Shell,ioos:station:wmo:42873:2,2022-01-05T13:50:00Z,28.1860,-89.1790,0.0,20.4,11111222
Shell,ioos:station:wmo:42873:2,2022-01-05T14:00:00Z,28.1860,-89.1790,0.0,20.3,11111222
Shell,ioos:station:wmo:42873:2,2022-01-05T14:10:00Z,28.1860,-89.1790,0.0,20.3,11111222
Shell,ioos:station:wmo:42873:2,2022-01-05T14:20:00Z,28.1860,-89.1790,0.0,20.3,11111222
Shell,ioos:station:wmo:42873:2,2022-01-05T14:30:00Z,28.1860,-89.1790,0.0,20.3,11111222
Shell,ioos:station:wmo:42873:2,2022-01-05T14:40:00Z,28.1860,-89.1790,0.0,20.2,11111222
Shell,ioos:station:wmo:42873:2,2022-01-05T14:50:00Z,28.1860,-89.1790,0.0,20.2,11111222
Shell,ioos:station:wmo:42873:2,2022-01-05T15:00:00Z,28.1860,-89.1790,0.0,20.2,11111222
Shell,ioos:station:wmo:42873:2,2022-01-05T15:10:00Z,28.1860,-89.1790,0.0,20.2,11111222
Shell,ioos:station:wmo:42873:2,2022-01-05T15:20:00Z,28.1860,-89.1790,0.0,20.2,11111222
Shell,ioos:station:wmo:42873:2,2022-01-05T15:30:00Z,28.1860,-89.1790,0.0,20.2,11111222
Shell,ioos:station:wmo:42873:2,2022-01-05T15:40:00Z,28.1860,-89.1790,0.0,20.3,11111222
Shell,ioos:station:wmo:42873:2,2022-01-05T15:50:00Z,28.1860,-89.1790,0.0,20.3,11111222
Shell,ioos:station:wmo:42873:2,2022-01-05T16:01:00Z,28.1860,-89.1790,0.0,20.3,11111222
Shell,ioos:station:wmo:42873:2,2022-01-05T16:11:00Z,28.1860,-89.1790,0.0,20.4,11111222
Shell,ioos:station:wmo:42873:2,2022-01-05T16:21:00Z,28.1860,-89.1790,0.0,20.4,11111222
Shell,ioos:station:wmo:42873:2,2022-01-05T16:31:00Z,28.1860,-89.1790,0.0,20.5,11111222
Shell,ioos:station:wmo:42873:2,2022-01-05T16:41:00Z,28.1860,-89.1790,0.0,20.6,11111222
Shell,ioos:station:wmo:42873:2,2022-01-05T16:51:00Z,28.1860,-89.1790,0.0,20.7,11111222
Shell,ioos:station:wmo:42873:2,2022-01-05T17:01:00Z,28.1860,-89.1790,0.0,20.8,11111222
Shell,ioos:station:wmo:42873:2,2022-01-05T17:11:00Z,28.1860,-89.1790,0.0,20.9,11111222
Shell,ioos:station:wmo:42873:2,2022-01-05T17:21:00Z,28.1860,-89.1790,0.0,20.9,11111222
Shell,ioos:station:wmo:42873:2,2022-01-05T17:31:00Z,28.1860,-89.1790,0.0,20.9,11111222
Shell,ioos:station:wmo:42873:2,2022-01-05T17:41:00Z,28.1860,-89.1790,0.0,20.9,11111222
Shell,ioos:station:wmo:42873:2,2022-01-05T17:51:00Z,28.1860,-89.1790,0.0,20.9,11111222
Shell,ioos:station:wmo:42873:2,2022-01-05T18:01:00Z,28.1860,-89.1790,0.0,21.0,11111222
Shell,ioos:station:wmo:42873:2,2022-01-05T18:11:00Z,28.1860,-89.1790,0.0,21.0,11111222
Shell,ioos:station:wmo:42873:2,2022-01-05T18:21:00Z,28.1860,-89.1790,0.0,21.0,11111222
Shell,ioos:station:wmo:42873:2,2022-01-05T18:31:00Z,28.1860,-89.1790,0.0,21.0,11111222
Shell,ioos:station:wmo:42873:2,2022-01-05T18:41:00Z,28.1860,-89.1790,0.0,21.1,11111222
Shell,ioos:station:wmo:42873:2,2022-01-05T18:51:00Z,28.1860,-89.1790,0.0,21.1,11111222
Shell,ioos:station:wmo:42873:2,2022-01-05T19:01:00Z,28.1860,-89.1790,0.0,21.1,11111222
Shell,ioos:station:wmo:42873:2,2022-01-05T19:11:00Z,28.1860,-89.1790,0.0,21.2,11111222
Shell,ioos:station:wmo:42873:2,2022-01-05T19:21:00Z,28.1860,-89.1790,0.0,21.3,11111222
Shell,ioos:station:wmo:42873:2,2022-01-05T19:31:00Z,28.1860,-89.1790,0.0,21.3,11111222
Shell,ioos:station:wmo:42873:2,2022-01-05T19:41:00Z,28.1860,-89.1790,0.0,21.4,11111222
Shell,ioos:station:wmo:42873:2,2022-01-08T16:24:00Z,28.1860,-89.1790,11.4,23.6,11111222
Shell,ioos:station:wmo:42873:2,2022-01-08T16:34:00Z,28.1860,-89.1790,11.4,23.7,11111222
Shell,ioos:station:wmo:42873:2,2022-01-08T16:44:00Z,28.1860,-89.1790,11.4,23.7,11111222
Shell,ioos:station:wmo:42873:2,2022-01-08T16:54:00Z,28.1860,-89.1790,11.5,23.7,11111222
Shell,ioos:station:wmo:42873:2,2022-01-08T17:04:00Z,28.1860,-89.1790,11.5,23.7,11111222
Shell,ioos:station:wmo:42873:2,2022-01-08T17:14:00Z,28.1860,-89.1790,11.5,23.7,11111222
Shell,ioos:station:wmo:42873:2,2022-01-08T17:24:00Z,28.1860,-89.1790,11.5,23.7,11111222
Shell,ioos:station:wmo:42873:2,2022-01-08T17:34:00Z,28.1860,-89.1790,11.5,23.7,11111222
Shell,ioos:station:wmo:42873:2,2022-01-08T17:44:00Z,28.1860,-89.1790,11.5,23.7,11111222
Shell,ioos:station:wmo:42873:2,2022-01-08T17:54:00Z,28.1860,-89.1790,11.5,23.8,11111222
Shell,ioos:station:wmo:42873:2,2022-01-08T18:04:00Z,28.1860,-89.1790,11.5,23.8,11111222
Shell,ioos:station:wmo:42873:2,2022-01-08T18:14:00Z,28.1860,-89.1790,11.5,23.8,11111222
Shell,ioos:station:wmo:42873:2,2022-01-08T18:24:00Z,28.1860,-89.1790,11.5,23.8,11111222
Shell,ioos:station:wmo:42873:2,2022-01-08T18:34:00Z,28.1860,-89.1790,11.5,23.9,11111222
Shell,ioos:station:wmo:42873:2,2022-01-08T18:44:00Z,28.1860,-89.1790,11.5,23.9,11111222
Shell,ioos:station:wmo:42873:2,2022-01-08T18:54:00Z,28.1860,-89.1790,11.5,23.9,11111222
Shell,ioos:station:wmo:42873:2,2022-01-08T19:04:00Z,28.1860,-89.1790,11.5,24.0,11111222
Shell,ioos:station:wmo:42873:2,2022-01-08T19:14:00Z,28.1860,-89.1790,11.5,24.0,11111222
Shell,ioos:station:wmo:42873:2,2022-01-08T19:24:00Z,28.1860,-89.1790,11.5,24.0,11111222
Shell,ioos:station:wmo:42873:2,2022-01-08T19:34:00Z,28.1860,-89.1790,11.5,24.0,11111222
Shell,ioos:station:wmo:42873:2,2022-01-08T19:44:00Z,28.1860,-89.1790,11.5,24.0,11111222
Shell,ioos:station:wmo:42873:2,2022-01-08T19:54:00Z,28.1860,-89.1790,11.3,24.0,11111222
Shell,ioos:station:wmo:42873:2,2022-01-08T20:04:00Z,28.1860,-89.1790,11.2,24.0,11111222
Shell,ioos:station:wmo:42873:2,2022-01-08T20:14:00Z,28.1860,-89.1790,11.2,24.0,11111222
Shell,ioos:station:wmo:42873:2,2022-01-08T20:24:00Z,28.1860,-89.1790,11.2,24.1,11111222
Shell,ioos:station:wmo:42873:2,2022-01-08T20:34:00Z,28.1860,-89.1790,11.1,24.1,11111222
Shell,ioos:station:wmo:42873:2,2022-01-08T20:44:00Z,28.1860,-89.1790,11.1,24.1,11111222
Shell,ioos:station:wmo:42873:2,2022-01-08T21:03:00Z,28.1860,-89.1790,11.5,24.1,11111222
Shell,ioos:station:wmo:42873:2,2022-01-08T21:13:00Z,28.1860,-89.1790,11.6,24.1,11111222
Shell,ioos:station:wmo:42873:2,2022-01-08T21:23:00Z,28.1860,-89.1790,11.6,24.1,11111222
Shell,ioos:station:wmo:42873:2,2022-01-08T21:33:00Z,69.0262,-115.6300,11.4,24.1,11111222
Shell,ioos:station:wmo:42873:2,2022-01-08T21:43:00Z,28.1860,-89.1790,11.4,24.1,11111222
Shell,ioos:station:wmo:42873:2,2022-01-08T21:53:00Z,28.1860,-89.1790,11.4,24.1,11111222
Shell,ioos:station:wmo:42873:2,2022-01-08T22:03:00Z,28.1860,-89.1790,11.4,24.1,11111222
Shell,ioos:station:wmo:42873:2,2022-01-08T22:13:00Z,28.1860,-89.1790,11.4,24.1,11111222
Shell,ioos:station:wmo:42873:2,2022-01-08T22:24:00Z,28.1860,-89.1790,11.3,24.1,11111222
Shell,ioos:station:wmo:42873:2,2022-01-08T22:34:00Z,28.1860,-89.1790,11.3,24.1,11111222
Shell,ioos:station:wmo:42873:2,2022-01-08T22:44:00Z,28.1860,-89.1790,11.3,24.1,11111222
Shell,ioos:station:wmo:42873:2,2022-01-08T22:54:00Z,28.1860,-89.1790,11.3,24.1,11111222
Shell,ioos:station:wmo:42873:2,2022-01-08T23:04:00Z,28.1860,-89.1790,11.4,24.1,11111222
Shell,ioos:station:wmo:42873:2,2022-01-08T23:14:00Z,28.1860,-89.1790,11.4,24.1,11111222
Shell,ioos:station:wmo:42873:2,2022-01-08T23:24:00Z,28.1860,-89.1790,11.4,24.1,11111222
Shell,ioos:station:wmo:42873:2,2022-01-08T23:34:00Z,28.1860,-89.1790,11.4,24.1,11111222
Shell,ioos:station:wmo:42873:2,2022-01-08T23:44:00Z,28.1860,-89.1790,11.4,24.1,11111222
Shell,ioos:station:wmo:42873:2,2022-01-08T23:54:00Z,28.1860,-89.1790,11.4,24.1,11111222
Shell,ioos:station:wmo:42873:2,2022-01-09T00:04:00Z,28.1860,-89.1790,11.4,24.1,11111222
Shell,ioos:station:wmo:42873:2,2022-01-09T00:14:00Z,28.1860,-89.1790,11.4,24.1,11111222
Shell,ioos:station:wmo:42873:2,2022-01-09T00:24:00Z,28.1860,-89.1790,11.3,24.1,11111222
Shell,ioos:station:wmo:42873:2,2022-01-09T00:34:00Z,28.1860,-89.1790,11.3,24.1,11111222
Shell,ioos:station:wmo:42873:2,2022-01-09T00:44:00Z,28.1860,-89.1790,11.4,24.1,11111222
Shell,ioos:station:wmo:42873:2,2022-01-09T00:54:00Z,28.1860,-89.1790,11.4,24.1,11111222
Shell,ioos:station:wmo:42873:2,2022-01-09T01:04:00Z,28.1860,-89.1790,11.4,24.0,11111222
Shell,ioos:station:wmo:42873:2,2022-01-09T01:14:00Z,28.1860,-89.1790,11.4,24.0,11111222
Shell,ioos:station:wmo:42873:2,2022-01-09T01:24:00Z,28.1860,-89.1790,11.4,24.0,11111222
Shell,ioos:station:wmo:42873:2,2022-01-09T01:34:00Z,28.1860,-89.1790,11.4,24.0,11111222
Shell,ioos:station:wmo:42873:2,2022-01-09T01:44:00Z,28.1860,-89.1790,11.4,24.0,11111222
Shell,ioos:station:wmo:42873:2,2022-01-09T01:54:00Z,28.1860,-89.1790,11.4,23.9,11111222
Shell,ioos:station:wmo:42873:2,2022-01-09T02:04:00Z,28.1860,-89.1790,11.4,23.8,11111222
Shell,ioos:station:wmo:42873:2,2022-01-09T02:14:00Z,28.1860,-89.1790,11.4,23.8,11111222
Shell,ioos:station:wmo:42873:2,2022-01-09T02:24:00Z,28.1860,-89.1790,11.4,23.8,11111222
Shell,ioos:station:wmo:42873:2,2022-01-09T02:34:00Z,28.1860,-89.1790,11.4,23.8,11111222
Shell,ioos:station:wmo:42873:2,2022-01-09T02:44:00Z,28.1860,-89.1790,11.4,23.8,11111222
Shell,ioos:station:wmo:42873:2,2022-01-09T02:54:00Z,28.1860,-89.1790,11.4,23.7,11111222
Shell,ioos:station:wmo:42873:2,2022-01-09T03:04:00Z,28.1860,-89.1790,11.4,23.7,11111222
Shell,ioos:station:wmo:42873:2,2022-01-09T03:14:00Z,28.1860,-89.1790,11.4,23.7,11111222
Shell,ioos:station:wmo:42873:2,2022-01-09T03:24:00Z,28.1860,-89.1790,11.4,23.7,11111222
Shell,ioos:station:wmo:42873:2,2022-01-09T03:34:00Z,28.1860,-89.1790,11.4,23.7,11111222
Shell,ioos:station:wmo:42873:2,2022-01-09T03:44:00Z,28.1860,-89.1790,11.4,23.7,11111222
Shell,ioos:station:wmo:42873:2,2022-01-09T03:54:00Z,28.1860,-89.1790,11.4,23.7,11111222
Shell,ioos:station:wmo:42873:2,2022-01-09T04:04:00Z,28.1860,-89.1790,11.3,23.7,11111222
Shell,ioos:station:wmo:42873:2,2022-01-09T04:14:00Z,28.1860,-89.1790,11.3,23.7,11111222
Shell,ioos:station:wmo:42873:2,2022-01-09T04:24:00Z,28.1860,-89.1790,11.3,23.7,11111222
Shell,ioos:station:wmo:42873:2,2022-01-09T04:34:00Z,28.1860,-89.1790,11.3,23.7,11111222
Shell,ioos:station:wmo:42873:2,2022-01-09T04:44:00Z,28.1860,-89.1790,11.3,23.7,11111222
Shell,ioos:station:wmo:42873:2,2022-01-09T04:54:00Z,28.1860,-89.1790,11.3,23.7,11111222
Shell,ioos:station:wmo:42873:2,2022-01-09T05:04:00Z,28.1860,-89.1790,11.4,23.7,11111222
Shell,ioos:station:wmo:42873:2,2022-01-09T05:14:00Z,28.1860,-89.1790,11.4,23.7,11111222
Shell,ioos:station:wmo:42873:2,2022-01-09T05:24:00Z,28.1860,-89.1790,11.4,23.7,11111222
Shell,ioos:station:wmo:42873:2,2022-01-09T05:34:00Z,28.1860,-89.1790,11.4,23.7,11111222
Shell,ioos:station:wmo:42873:2,2022-01-09T05:44:00Z,28.1860,-89.1790,11.4,23.7,11111222
Shell,ioos:station:wmo:42873:2,2022-01-09T05:55:00Z,28.1860,-89.1790,11.4,23.7,11111222
Shell,ioos:station:wmo:42873:2,2022-01-09T06:05:00Z,28.1860,-89.1790,11.4,23.7,11111222
Shell,ioos:station:wmo:42873:2,2022-01-09T06:15:00Z,28.1860,-89.1790,11.4,23.6,11111222
Shell,ioos:station:wmo:42873:2,2022-01-09T06:25:00Z,28.1860,-89.1790,11.4,23.7,11111222
Shell,ioos:station:wmo:42873:2,2022-01-09T06:35:00Z,28.1860,-89.1790,11.4,23.7,11111222
Shell,ioos:station:wmo:42873:2,2022-01-09T06:45:00Z,28.1860,-89.1790,11.4,23.7,11111222
Shell,ioos:station:wmo:42873:2,2022-01-09T06:55:00Z,28.1860,-89.1790,11.4,23.7,11111222
Shell,ioos:station:wmo:42873:2,2022-01-09T07:05:00Z,28.1860,-89.1790,11.3,23.6,11111222
Shell,ioos:station:wmo:42873:2,2022-01-09T07:15:00Z,28.1860,-89.1790,11.4,23.6,11111222
Shell,ioos:station:wmo:42873:2,2022-01-09T07:25:00Z,28.1860,-89.1790,11.4,23.6,11111222
Shell,ioos:station:wmo:42873:2,2022-01-09T07:35:00Z,28.1860,-89.1790,11.4,23.6,11111222
Shell,ioos:station:wmo:42873:2,2022-01-09T07:45:00Z,28.1860,-89.1790,11.4,23.6,11111222
Shell,ioos:station:wmo:42873:2,2022-01-09T07:55:00Z,28.1860,-89.1790,11.4,23.6,11111222
Shell,ioos:station:wmo:42873:2,2022-01-09T08:05:00Z,28.1860,-89.1790,11.4,23.6,11111222
Shell,ioos:station:wmo:42873:2,2022-01-09T08:15:00Z,28.1860,-89.1790,11.4,23.5,11111222
Shell,ioos:station:wmo:42873:2,2022-01-09T08:25:00Z,28.1860,-89.1790,11.4,23.5,11111222
Shell,ioos:station:wmo:42873:2,2022-01-09T08:35:00Z,28.1860,-89.1790,11.4,23.5,11111222
Shell,ioos:station:wmo:42873:2,2022-01-09T08:45:00Z,28.1860,-89.1790,11.4,23.5,11111222
Shell,ioos:station:wmo:42873:2,2022-01-09T08:55:00Z,28.1860,-89.1790,11.4,23.5,11111222
Shell,ioos:station:wmo:42873:2,2022-01-09T09:05:00Z,28.1860,-89.1790,11.4,23.5,11111222
Shell,ioos:station:wmo:42873:2,2022-01-09T09:15:00Z,28.1860,-89.1790,11.4,23.5,11111222